EHI
0 0 0 0 0 0 0 0 0 0 0 0 2 9 16 16 13 17 30 39 44 44 39 33 32 34 35 37 39 41 45 46 42 36 30 25 19 11 8 6 3 2 1 1
0 0 0 0 0 0 0 0 0 0 0 0 2 8 15 17 15 18 27 35 40 41 35 30 29 31 33 34 35 36 38 37 33 29 25 20 15 11 10 9 4 1 0 1
0 0 0 0 0 0 0 0 0 0 0 0 1 6 14 19 18 21 25 31 36 38 34 28 26 27 28 27 27 29 32 31 26 21 16 12 9 8 11 12 6 1 0 1
0 0 0 0 0 0 0 0 0 0 0 0 0 4 12 19 24 28 29 30 35 37 36 31 26 24 24 21 21 28 33 32 26 19 12 7 4 5 8 10 7 3 2 3
0 0 0 0 0 0 0 0 0 0 0 0 0 2 8 18 26 33 34 34 36 37 36 32 26 23 21 18 20 28 33 31 24 17 10 6 4 4 7 9 8 4 2 3
0 0 0 0 0 0 0 0 0 0 0 0 0 0 4 12 22 31 36 38 37 35 33 32 28 24 20 18 19 23 27 25 19 13 10 8 6 8 10 10 6 3 2 1
0 0 0 0 0 0 0 0 0 0 0 0 0 0 1 5 13 23 33 38 38 34 32 32 32 27 21 18 18 19 21 20 15 11 10 11 11 11 12 7 2 0 1 1
0 0 0 0 0 0 0 0 0 0 0 0 0 0 1 2 6 14 25 33 35 35 35 35 35 30 22 18 17 18 20 20 17 14 12 13 13 11 8 4 1 0 1 3
0 0 0 0 0 0 0 0 0 0 0 0 0 0 1 3 5 9 18 26 31 35 38 38 35 29 22 18 17 17 20 21 19 17 14 12 12 9 6 4 2 1 3 5
0 0 0 0 0 0 0 0 0 0 0 0 0 0 2 3 5 7 15 25 31 36 40 40 35 28 21 17 16 17 20 21 20 18 14 12 10 9 8 8 5 5 6 6
0 0 0 0 0 0 0 0 0 0 0 0 0 0 1 2 4 6 13 24 32 37 40 41 37 28 20 16 15 17 21 22 20 18 15 14 13 12 12 11 9 8 7 6
0 0 0 0 0 0 0 0 0 0 0 0 0 0 0 1 2 4 10 23 34 37 39 40 38 32 23 17 16 20 23 23 20 18 17 17 18 17 16 15 13 10 7 5
0 0 0 0 0 0 0 0 0 0 0 0 0 0 0 0 1 3 9 22 36 40 39 43 47 43 32 25 25 27 27 24 20 19 20 21 23 22 20 19 16 11 8 5
1 0 0 0 0 0 1 0 0 0 0 0 0 0 0 1 3 5 9 19 34 41 45 53 60 56 45 39 38 36 33 30 27 26 26 28 29 26 23 22 19 13 8 5
1 1 0 0 0 0 0 0 0 0 0 0 0 0 0 1 3 6 9 16 27 38 47 61 69 68 62 56 50 44 40 40 39 37 34 36 36 31 26 25 21 15 9 5
1 1 1 1 0 0 0 0 0 0 0 0 0 0 0 1 3 8 13 17 26 37 47 61 73 77 76 71 61 53 47 47 47 43 40 39 38 33 29 27 24 18 13 9
1 2 2 1 0 0 0 0 0 0 0 0 1 1 3 4 7 14 22 25 30 40 52 64 74 80 82 78 70 60 52 50 50 47 43 41 40 37 33 30 27 24 21 19
1 2 2 2 1 0 0 0 0 1 1 2 3 6 8 9 12 21 29 33 37 48 62 70 74 78 81 80 76 67 58 56 55 52 49 46 44 43 40 37 35 34 32 30
1 1 1 1 1 0 0 1 1 2 5 8 11 12 13 14 19 26 35 41 47 58 70 74 75 78 82 83 82 75 66 63 62 60 58 55 51 49 48 47 46 44 40 37
1 1 1 0 0 0 1 2 2 4 12 19 21 20 21 25 30 34 40 47 55 65 74 76 75 78 85 88 87 79 71 69 69 67 66 63 58 54 52 51 51 49 45 41
2 2 1 0 0 0 1 2 3 9 20 27 28 26 28 33 38 38 41 49 58 66 72 75 78 82 89 93 90 81 73 71 71 71 69 64 58 52 49 51 52 49 45 41
1 1 0 0 0 1 2 2 5 12 20 24 25 25 25 28 31 34 38 47 56 62 66 70 76 83 87 89 86 79 72 70 69 68 66 62 55 46 44 49 50 46 41 38
0 0 0 0 0 1 2 3 6 8 12 16 18 18 18 19 23 27 34 42 49 56 62 66 71 77 78 78 76 72 68 66 64 62 61 59 51 43 41 43 41 36 32 29
0 0 0 0 1 1 2 3 3 3 6 10 14 17 19 19 20 24 31 38 44 50 57 61 64 68 67 65 65 65 63 63 61 59 57 53 44 38 36 34 28 22 19 16
0 0 0 0 1 1 1 1 1 1 5 9 14 19 22 21 20 23 29 35 40 44 47 49 54 57 56 56 56 57 58 58 57 55 51 44 34 26 23 20 14 10 8 6
0 0 0 0 1 1 1 1 0 1 4 9 14 18 21 21 21 23 28 33 37 40 41 43 47 50 50 50 50 52 52 53 52 50 46 37 28 18 12 9 6 3 2 2
Wind_Speed
15 14 14 14 14 14 13 12 10 8 4 5 6 5 7 8 8 7 8 9 9 9 10 10 10 10 10 9 9 8 8 8 6 5 5 5 4 3 4 5 5 4 3 3
16 17 17 16 14 13 13 13 11 8 5 6 7 7 7 8 8 8 9 9 10 11 12 12 11 10 10 9 9 8 8 8 6 5 4 4 4 3 4 4 4 4 4 3
19 16 15 15 14 14 13 11 10 10 9 9 8 8 6 8 9 10 11 10 11 13 14 13 12 11 11 11 10 9 8 8 7 7 5 5 3 2 4 5 4 3 4 3
18 18 15 14 13 13 11 9 11 12 11 8 6 6 8 12 12 12 12 12 12 13 14 14 13 12 11 11 10 10 9 8 8 7 6 7 6 4 5 5 4 4 3 4
17 17 16 15 14 12 12 9 10 11 10 10 9 9 6 11 11 12 13 14 14 14 14 14 13 13 13 12 11 11 10 8 8 6 7 6 5 5 5 5 6 5 4 3
19 16 15 15 13 11 10 10 9 7 6 9 11 10 5 9 13 14 15 15 15 15 15 14 14 13 12 12 12 12 10 8 8 7 7 5 5 6 7 7 7 4 4 3
20 19 17 15 14 11 11 10 6 5 3 8 11 9 4 9 13 15 17 17 17 16 15 15 15 15 14 14 13 12 11 9 8 7 7 6 5 5 6 6 6 5 5 4
17 15 15 14 13 12 12 12 9 7 6 5 5 6 2 6 10 13 15 16 17 17 16 16 16 15 15 15 14 13 12 10 9 8 7 6 6 5 5 5 4 4 3 5
15 13 11 13 13 15 14 12 12 11 12 8 3 3 2 4 10 13 15 16 17 18 18 17 16 16 15 15 14 15 13 11 9 9 8 7 6 5 5 5 3 3 4 6
16 14 12 10 11 15 15 11 8 8 8 8 4 3 2 4 8 11 14 16 17 18 18 17 16 16 14 14 13 14 14 12 10 9 9 8 6 4 5 5 4 4 5 6
14 16 14 11 10 12 11 12 9 8 7 7 5 2 4 8 8 11 14 15 17 18 18 17 15 15 15 15 15 14 14 13 11 10 8 8 8 6 6 4 5 5 5 6
10 11 12 12 10 11 12 12 12 10 8 8 6 2 4 5 7 9 13 16 17 17 17 17 17 16 15 15 15 14 14 13 12 10 8 8 8 8 7 7 6 6 5 5
7 6 9 11 9 6 9 10 10 10 8 8 8 4 5 4 5 8 12 15 15 15 16 16 15 15 14 14 14 14 14 14 13 12 11 9 8 8 8 8 7 7 6 6
5 8 10 11 6 5 8 10 11 10 8 10 9 3 5 6 7 7 10 14 16 15 14 15 14 14 13 13 13 14 14 14 13 12 12 10 9 8 8 8 8 7 7 7
7 11 13 13 9 8 9 11 12 14 13 12 9 5 3 5 5 8 10 13 15 16 15 15 15 14 13 13 12 13 13 13 13 12 12 11 10 9 8 8 8 8 8 8
5 8 12 15 13 11 12 13 15 18 16 15 12 8 5 5 6 9 11 12 14 15 16 16 16 15 14 14 14 13 13 12 12 12 11 11 11 10 10 9 9 8 8 7
6 7 11 12 12 11 13 14 15 15 15 13 12 8 3 3 6 7 8 10 12 14 15 15 16 15 13 13 12 13 12 12 12 11 11 11 11 11 10 11 10 9 9 8
8 8 7 9 10 14 9 9 10 12 13 11 7 4 3 3 2 3 5 6 8 10 12 13 13 14 14 13 13 12 12 12 12 11 11 11 11 11 10 9 9 9 8 7
10 8 7 8 10 11 11 7 6 8 8 3 0 1 2 2 3 3 4 3 3 4 6 8 12 15 13 13 13 12 12 13 13 13 11 11 11 11 10 10 8 8 7 7
7 7 8 9 8 10 6 7 10 7 4 6 3 1 1 2 2 3 4 4 2 1 3 6 8 10 12 13 13 13 13 13 13 12 11 10 10 9 9 9 7 7 6 6
3 5 9 11 10 6 5 7 8 3 2 7 6 4 6 6 4 4 5 5 4 3 2 4 6 6 6 9 11 11 10 10 9 9 8 8 8 8 8 7 6 6 6 6
3 4 6 6 8 4 7 6 3 1 4 5 6 5 6 6 6 6 7 6 5 5 4 5 6 6 6 7 9 8 8 7 8 8 8 8 8 8 8 6 6 6 6 6
2 2 3 2 2 3 5 4 3 3 2 3 3 3 5 5 6 7 7 7 6 5 5 5 6 7 6 6 7 7 5 6 7 7 7 6 6 5 5 6 6 5 5 5
1 1 3 3 4 5 5 4 3 2 2 2 3 5 5 6 7 7 7 7 6 6 6 6 7 7 6 5 5 5 5 6 6 7 6 5 5 4 3 3 4 4 4 4
3 2 2 2 3 4 5 4 4 5 7 6 7 8 8 7 8 8 7 7 7 7 7 6 6 7 7 6 5 5 5 5 5 5 5 4 4 4 3 3 2 3 2 3
3 2 2 2 2 2 5 5 5 5 6 6 7 9 9 9 9 9 9 8 8 8 8 7 7 8 8 7 6 5 5 5 5 4 4 3 3 3 3 3 3 4 5 5
Wind_Direction
228 234 243 248 247 258 270 283 290 290 264 246 244 227 198 177 176 164 153 149 155 151 150 146 144 143 142 141 148 147 142 141 140 142 145 144 147 139 127 125 131 131 122 122
235 234 245 259 265 267 270 277 283 286 279 267 261 243 202 183 186 176 161 159 162 157 154 152 152 153 151 149 149 147 147 147 148 144 138 143 137 147 130 116 133 139 136 142
238 243 237 244 257 267 269 276 283 278 264 254 264 259 211 191 180 173 169 168 169 166 164 161 161 159 157 158 159 156 150 148 145 142 134 130 123 131 122 133 145 144 144 140
246 253 253 252 255 264 269 271 276 278 275 275 259 261 219 187 184 178 174 171 171 170 163 163 163 159 159 158 156 147 146 145 143 147 149 155 162 159 147 147 140 144 146 139
248 249 250 254 257 260 275 282 283 288 291 285 269 260 221 175 185 183 175 173 171 168 164 164 166 162 161 158 154 149 145 144 146 152 156 165 159 147 140 132 135 147 143 147
259 257 253 253 254 253 269 273 277 286 296 283 275 270 223 181 184 187 179 172 169 167 162 160 160 159 160 158 155 151 147 148 153 160 158 168 157 147 141 142 148 164 156 163
253 255 253 248 250 242 245 253 260 268 246 251 269 270 220 183 173 175 173 168 166 165 163 164 163 163 162 162 158 153 152 156 161 161 158 164 154 148 145 156 164 181 162 156
249 247 245 243 241 251 243 247 252 264 260 260 267 259 188 155 150 155 160 163 163 165 166 168 168 166 167 164 161 157 159 163 165 162 158 159 157 164 161 176 173 181 157 133
256 259 252 242 235 243 246 245 256 263 270 271 245 256 114 143 143 147 156 162 167 168 168 169 170 169 169 167 165 163 163 165 166 162 159 162 175 180 158 158 179 155 128 134
256 268 264 250 233 235 243 250 261 269 280 284 272 280 183 209 173 160 164 167 168 168 169 170 171 172 171 168 166 164 164 167 168 165 169 170 173 158 147 162 165 131 119 115
255 256 256 248 239 242 239 243 253 267 271 282 284 274 199 205 189 173 172 169 168 171 171 170 170 171 170 168 168 167 167 168 170 171 179 164 168 164 163 167 154 136 134 138
273 264 259 250 245 253 262 250 246 251 258 277 286 248 197 197 186 179 174 168 169 172 171 169 170 170 172 172 171 171 171 172 174 172 172 168 169 169 175 174 163 157 157 164
311 283 264 255 245 251 265 273 284 280 259 260 268 206 170 166 190 185 171 163 164 169 170 168 167 169 173 174 173 172 173 174 176 174 176 175 173 177 184 174 167 169 172 180
289 272 267 263 260 271 275 284 290 281 269 261 265 242 178 193 185 174 161 159 163 168 168 165 164 168 172 173 172 172 175 176 176 175 179 178 180 182 184 174 171 176 180 186
279 258 255 258 243 233 256 268 277 273 266 270 271 259 217 203 182 179 174 165 166 170 171 167 167 170 171 172 172 175 177 177 176 177 182 181 181 181 183 180 177 181 188 194
289 283 275 263 253 241 237 237 245 255 257 257 258 256 213 185 198 193 174 171 171 174 176 174 172 172 173 175 176 178 178 178 175 180 185 179 181 182 185 184 183 185 192 199
274 280 279 268 269 268 248 238 240 244 247 247 251 250 192 188 220 183 164 174 177 179 180 178 176 175 175 177 176 178 178 175 178 182 185 180 183 185 187 191 188 190 193 198
253 264 269 272 269 257 261 255 254 259 254 245 239 219 181 177 186 147 151 172 186 181 181 179 179 178 177 177 175 178 179 178 181 184 186 182 185 187 187 191 190 189 190 197
223 227 248 260 261 265 272 284 308 293 287 294 136 120 122 155 136 104 92 123 170 179 171 174 180 178 174 175 174 176 181 181 184 188 189 185 186 187 186 190 189 186 190 197
216 211 236 246 252 256 290 325 323 308 294 351 38 48 79 100 156 97 80 89 100 133 157 172 181 177 172 173 172 178 184 185 188 188 186 181 180 183 187 189 188 186 190 200
247 237 239 248 251 256 331 318 332 308 324 352 6 46 68 68 66 70 67 77 73 68 84 131 139 145 153 160 164 173 180 184 182 176 172 172 175 180 181 183 181 182 193 206
264 256 254 251 248 251 1 359 15 347 331 10 16 35 75 79 73 72 72 72 74 79 86 108 113 114 117 132 149 162 173 172 165 162 163 165 165 178 182 176 178 185 198 208
315 333 310 310 308 14 1 21 356 297 332 14 24 46 71 85 80 73 73 72 69 74 81 86 104 105 107 118 133 147 144 137 138 139 142 144 151 164 161 170 181 191 203 220
304 297 285 331 355 354 344 352 318 302 50 32 43 61 71 84 85 85 81 73 70 68 73 79 92 101 99 101 107 115 119 126 129 133 137 139 149 161 154 159 179 194 206 219
320 332 329 314 333 336 322 329 339 13 30 37 56 62 67 78 85 88 83 76 73 72 72 77 86 94 98 95 93 94 101 112 121 126 130 141 153 157 162 166 175 185 201 200
346 350 333 318 322 303 302 329 353 28 37 42 60 62 61 69 76 80 82 79 78 76 74 75 79 86 92 93 87 81 89 105 115 122 127 140 152 158 176 184 204 213 218 198